Location: Unspecified
(0.0000°N, 0.0000°E)
Time: 06:12:45
(UTC+00:00)

Vanguard 2 - Pass Details

Date: 17 September 2019
Orbit: 554 x 2937 km, 32.9° (Epoch: 14 October)

Event Time Altitude Azimuth Distance (km) Brightness Sun altitude
Rises 01:44:19 0° 247° (WSW) 6,783 - -62.5°
Reaches altitude 10° 01:49:13 10° 251° (WSW) 5,683 - -61.3°
Maximum altitude 02:05:13 51° 321° (NW) 2,761 - -57.3°
Exits shadow 02:13:53 19° 28° (NNE) 3,471 10.9 -55.1°
Drops below altitude 10° 02:16:04 10° 35° (NE) 3,947 11.3 -54.6°
Sets 02:18:52 0° 41° (NE) 4,646 11.9 -53.9°
